Location: Six Mile Lake
(44.9000°N, 79.7170°W)
Time: 21:36:48
(UTC-04:00)

NOAA 18 - Pass Details

Date: 29 June 2022
Orbit: 839 x 860 km, 98.9° (Epoch: 15 August)

Event Time Altitude Azimuth Distance (km) Brightness Sun altitude
Exits shadow 00:21:06 10° 229° (SW) 2,508 7.4 -20.5°
Reaches altitude 10° 00:21:14 10° 230° (SW) 2,475 7.4 -20.5°
Maximum altitude 00:24:43 17° 270° (W) 2,030 7.3 -20.6°
Drops below altitude 10° 00:28:14 10° 310° (NW) 2,495 8.4 -20.8°
Sets 00:31:32 0° 330° (NNW) 3,441 9.7 -20.9°
